Aduana, Mexico

1:25 AM on July 26, 2017 (GMT +0000)
Aduana

Weather History for 76590 - August, 2013

Change the Weather History Date:

Friday, August 2, 2013

  Actual Average Record
Temperature  
Mean Temperature 81 °F -  
Max Temperature 89 °F 89 °F - ()
Min Temperature 73 °F 73 °F - ()
Cooling Degree Days 16    
Growing Degree Days 31 (Base 50)    
Moisture  
Dew Point 74 °F    
Average Humidity 79    
Maximum Humidity 100    
Minimum Humidity 55    
Precipitation  
Precipitation 0.00 in - - ()
Sea Level Pressure  
Sea Level Pressure 29.96 in    
Wind  
Wind Speed 3 mph ()    
Max Wind Speed 14 mph    
Max Gust Speed -    
Visibility 7.0 miles    
Events      
T = Trace of Precipitation, MM = Missing Value Source: Averaged Metar Reports

Daily Weather History Graph

Daily Weather History Graph

Search for Another Location

Airport or City:

Trip Planner

Search our weather history database for the weather conditions in past years. The results will help you decide how hot, cold, wet, or windy it might be!

Date:

Astronomy

Aug. 02, 2013 Rise Set
Actual Time 11:21 AM UTC 12:25 AM UTC
Civil Twilight 10:58 AM UTC 12:48 AM UTC
Nautical Twilight 10:30 AM UTC 1:16 AM UTC
Astronomical Twilight 10:01 AM UTC 1:45 AM UTC
Moon 7:47 AM UTC (8/2) 9:17 PM UTC (8/2)
Length of Visible Light 13h 50m
Length of Day
13h 03m
Waning Crescent, 17% of the Moon is Illuminated
Aug 2
Waning Crescent
Aug 6
New
Aug 14
First Quarter
Aug 21
Full
Aug 28
Last Quarter

Hourly Weather History & Observations

Time (GMT) Temp. Heat Index Dew Point Humidity Pressure Visibility Wind Dir Wind Speed Gust Speed Precip Events Conditions
12:44 AM 82.4 °F 88.2 °F 73.4 °F 74% 29.93 in 7.0 mi ENE 2.3 mph - N/A   Scattered Clouds
1:43 AM 80.6 °F 86.2 °F 75.2 °F 84% 29.95 in 7.0 mi ENE 2.3 mph - N/A   Scattered Clouds
2:48 AM 80.6 °F 86.2 °F 75.2 °F 84% 29.94 in 7.0 mi ESE 5.8 mph - N/A   Scattered Clouds
3:47 AM 80.6 °F 87.1 °F 77.0 °F 89% 29.98 in 7.0 mi SE 5.8 mph - N/A   Scattered Clouds
4:46 AM 78.8 °F - 77.0 °F 94% 29.98 in 7.0 mi Calm Calm - N/A   Scattered Clouds
5:45 AM 77.0 °F - 77.0 °F 100% 29.94 in 7.0 mi Calm Calm - N/A   Scattered Clouds
6:44 AM 77.0 °F - 75.2 °F 94% 29.94 in 7.0 mi Calm Calm - N/A   Partly Cloudy
7:43 AM 77.0 °F - 73.4 °F 89% 29.93 in 7.0 mi Calm Calm - N/A   Clear
8:46 AM 75.2 °F - 73.4 °F 94% 29.91 in 7.0 mi Calm Calm - N/A   Clear
9:45 AM 75.2 °F - 73.4 °F 94% 29.92 in 7.0 mi Calm Calm - N/A   Clear
10:44 AM 73.4 °F - 73.4 °F 100% 29.93 in 7.0 mi Calm Calm - N/A   Partly Cloudy
11:43 AM 73.4 °F - 71.6 °F 94% 29.94 in 7.0 mi Calm Calm - N/A   Scattered Clouds
12:42 PM 75.2 °F - 75.2 °F 100% 29.96 in 7.0 mi Calm Calm - N/A   Scattered Clouds
1:44 PM 84.2 °F 94.1 °F 77.0 °F 79% 29.98 in 7.0 mi SW 3.5 mph - N/A   Scattered Clouds
2:45 PM 84.2 °F 90.9 °F 73.4 °F 70% 29.99 in 7.0 mi South 6.9 mph - N/A   Mostly Cloudy
3:44 PM 87.8 °F 95.6 °F 73.4 °F 62% 30.01 in 7.0 mi SSE 8.1 mph - N/A   Scattered Clouds
4:42 PM 87.8 °F 95.6 °F 73.4 °F 62% 30.01 in 7.0 mi SSE 13.8 mph - N/A   Scattered Clouds
5:46 PM 89.6 °F 98.2 °F 73.4 °F 59% 30.00 in 7.0 mi SE 3.5 mph - N/A   Scattered Clouds
6:45 PM 89.6 °F 96.2 °F 71.6 °F 55% 29.98 in 7.0 mi SSE 13.8 mph - N/A   Scattered Clouds
7:46 PM 87.8 °F 95.6 °F 73.4 °F 62% 29.98 in 7.0 mi SE 13.8 mph - N/A   Mostly Cloudy
8:43 PM 87.8 °F 95.6 °F 73.4 °F 62% 29.98 in 7.0 mi SE 11.5 mph - N/A   Mostly Cloudy
9:47 PM 84.2 °F 90.9 °F 73.4 °F 70% 29.98 in 7.0 mi NNW 5.8 mph - N/A   Mostly Cloudy
10:42 PM 86.0 °F 91.8 °F 71.6 °F 62% 29.98 in 7.0 mi North 5.8 mph - N/A   Mostly Cloudy
11:44 PM 84.2 °F 92.3 °F 75.2 °F 74% 29.99 in 7.0 mi ESE 8.1 mph - N/A   Mostly Cloudy